SV4RJA-13 Weather Reports


time (UTC)temp
C
wind
direction
speed
KPH
gust
KPH
rain 1hr
cm
rain 24hr
cm
rain mn
cm
humidity
%
barometer
mb
20260508033911 16 0.0 0.0 0.00 0.00 0.00 10 1016.8
20260508032911 16 0.0 0.0 0.00 0.00 0.00 10 1016.8
20260508031912 16 0.0 0.0 0.00 0.00 0.00 10 1016.8
20260508030912 17 0.0 0.0 0.00 0.00 0.00 10 1016.5
20260508025913 17 0.0 0.0 0.00 0.00 0.00 10 1016.5
20260508024913 16 0.0 0.0 0.00 0.00 0.00 10 1016.7
20260508023912 16 0.0 0.0 0.00 0.00 0.00 10 1016.7
20260508021912 16 0.0 0.0 0.00 0.00 0.00 10 1016.7
20260508015912 16 0.0 0.0 0.00 0.00 0.00 10 1016.9
20260508014912 16 0.0 0.0 0.00 0.00 0.00 10 1016.9
20260508013912 16 0.0 0.0 0.00 0.00 0.00 10 1016.9
20260508012911 16 0.0 0.0 0.00 0.00 0.00 10 1016.9
20260508005913 17 0.0 0.0 0.00 0.00 0.00 10 1016.9
20260508004912 17 0.0 0.0 0.00 0.00 0.00 10 1017.0
20260508003912 16 0.0 0.0 0.00 0.00 0.00 10 1017.1
20260508001911 16 0.0 0.0 0.00 0.00 0.00 10 1017.2
20260508000911 16 0.0 0.0 0.00 0.00 0.00 10 1017.4
20260507235912 16 0.0 0.0 0.00 0.00 0.00 10 1017.5
20260507234912 17 0.0 0.0 0.00 0.00 0.00 10 1017.6
20260507233913 16 0.0 0.0 0.00 0.00 0.00 10 1017.6
20260507232913 16 0.0 0.0 0.00 0.00 0.00 10 1017.9
20260507231912 16 0.0 0.0 0.00 0.00 0.00 10 1017.9
20260507230912 16 0.0 0.0 0.00 0.00 0.00 10 1018.1
20260507224912 17 0.0 0.0 0.00 0.00 0.00 10 1018.3
20260507223912 17 0.0 0.0 0.00 0.00 0.00 10 1018.2
20260507222912 16 0.0 0.0 0.00 0.00 0.00 10 1018.2
20260507221913 17 0.0 0.0 0.00 0.00 0.00 10 1018.2
20260507220913 16 0.0 0.0 0.00 0.00 0.00 10 1018.2
20260507215912 17 0.0 0.0 0.00 0.00 0.00 10 1018.2
20260507214913 17 0.0 0.0 0.00 0.00 0.00 10 1018.3
20260507213912 17 0.0 0.0 0.00 0.00 0.00 10 1018.5
20260507212913 17 0.0 0.0 0.00 0.00 0.00 10 1018.4
20260507211913 17 0.0 0.0 0.00 0.00 0.00 10 1018.6
20260507205913 17 0.0 0.0 0.00 0.00 0.00 10 1018.5
20260507204912 17 0.0 0.0 0.00 0.00 0.00 10 1018.5
20260507203912 17 0.0 0.0 0.00 0.00 0.00 10 1018.5
20260507202911 18 0.0 0.0 0.00 0.00 0.00 10 1018.4
20260507201911 18 0.0 0.0 0.00 0.00 0.00 10 1018.4
20260507200912 18 0.0 0.0 0.00 0.00 0.00 10 1018.4
20260507195912 18 0.0 0.0 0.00 0.00 0.00 10 1018.5
20260507194911 18 0.0 0.0 0.00 0.00 0.00 10 1018.5
20260507192912 18 0.0 0.0 0.00 0.00 0.00 10 1018.5
20260507191912 18 0.0 0.0 0.00 0.00 0.00 10 1018.3
20260507190912 18 0.0 0.0 0.00 0.00 0.00 10 1018.4
20260507185912 19 0.0 0.0 0.00 0.00 0.00 99 1018.2
20260507184913 19 0.0 0.0 0.00 0.00 0.00 96 1018.0
20260507183913 19 0.0 0.0 0.00 0.00 0.00 96 1017.8
20260507182912 19 0.0 0.0 0.00 0.00 0.00 97 1017.9
20260507181913 20 0.0 0.0 0.00 0.00 0.00 96 1017.9
20260507180913 20 0.0 0.0 0.00 0.00 0.00 96 1017.8
20260507175913 20 0.0 0.0 0.00 0.00 0.00 95 1017.7
20260507174913 20 0.0 0.0 0.00 0.00 0.00 93 1017.7
20260507173913 20 0.0 0.0 0.00 0.00 0.00 92 1017.6
20260507172913 20 0.0 0.0 0.00 0.00 0.00 92 1017.8
20260507171913 21 0.0 0.0 0.00 0.00 0.00 89 1017.9
20260507170912 21 0.0 0.0 0.00 0.00 0.00 86 1017.9
20260507163912 21 0.0 0.0 0.00 0.00 0.00 78 1017.8
20260507162913 22 0.0 0.0 0.00 0.00 0.00 78 1017.8
20260507161912 22 0.0 0.0 0.00 0.00 0.00 82 1017.8
20260507160913 22 0.0 0.0 0.00 0.00 0.00 83 1017.7
20260507155913 22 0.0 0.0 0.00 0.00 0.00 79 1017.6
20260507154913 22 0.0 0.0 0.00 0.00 0.00 79 1017.7
20260507153913 22 0.0 0.0 0.00 0.00 0.00 79 1017.6
20260507152913 22 0.0 0.0 0.00 0.00 0.00 78 1017.9
20260507151913 22 0.0 0.0 0.00 0.00 0.00 74 1017.9
20260507150920 23 0.0 0.0 0.00 0.00 0.00 74 1017.9
20260507144913 22 0.0 0.0 0.00 0.00 0.00 71 1017.9
20260507143912 22 0.0 0.0 0.00 0.00 0.00 74 1017.8
20260507142911 23 0.0 0.0 0.00 0.00 0.00 68 1017.8
20260507141912 23 0.0 0.0 0.00 0.00 0.00 72 1017.8
20260507140913 23 0.0 0.0 0.00 0.00 0.00 65 1017.7
20260507135912 23 0.0 0.0 0.00 0.00 0.00 65 1017.8
20260507132912 22 0.0 0.0 0.00 0.00 0.00 66 1017.7
20260507131912 23 0.0 0.0 0.00 0.00 0.00 65 1017.9
20260507130912 23 0.0 0.0 0.00 0.00 0.00 55 1017.9
20260507125913 24 0.0 0.0 0.00 0.00 0.00 58 1018.0
20260507124912 25 0.0 0.0 0.00 0.00 0.00 50 1018.0
20260507123912 23 0.0 0.0 0.00 0.00 0.00 58 1018.3
20260507122912 23 0.0 0.0 0.00 0.00 0.00 64 1018.3
20260507121913 23 0.0 0.0 0.00 0.00 0.00 67 1018.1
20260507120912 23 0.0 0.0 0.00 0.00 0.00 67 1018.4
20260507115912 24 0.0 0.0 0.00 0.00 0.00 65 1018.5
20260507114913 23 0.0 0.0 0.00 0.00 0.00 64 1018.8
20260507113913 23 0.0 0.0 0.00 0.00 0.00 61 1019.1
20260507112913 24 0.0 0.0 0.00 0.00 0.00 54 1019.1
20260507111912 24 0.0 0.0 0.00 0.00 0.00 58 1019.2
20260507105912 22 0.0 0.0 0.00 0.00 0.00 68 1018.9
20260507104912 22 0.0 0.0 0.00 0.00 0.00 71 1018.7
20260507103912 22 0.0 0.0 0.00 0.00 0.00 73 1018.7
20260507102912 22 0.0 0.0 0.00 0.00 0.00 71 1018.4
20260507101911 22 0.0 0.0 0.00 0.00 0.00 64 1018.2
20260507100912 22 0.0 0.0 0.00 0.00 0.00 62 1018.5
20260507095913 23 0.0 0.0 0.00 0.00 0.00 59 1018.5
20260507094913 23 0.0 0.0 0.00 0.00 0.00 53 1018.6
20260507093913 25 0.0 0.0 0.00 0.00 0.00 49 1018.5
20260507092913 25 0.0 0.0 0.00 0.00 0.00 50 1018.4
20260507091913 26 0.0 0.0 0.00 0.00 0.00 50 1018.3
20260507090911 26 0.0 0.0 0.00 0.00 0.00 54 1018.3
20260507084912 25 0.0 0.0 0.00 0.00 0.00 57 1018.3
20260507083912 25 0.0 0.0 0.00 0.00 0.00 53 1018.3
20260507082911 25 0.0 0.0 0.00 0.00 0.00 52 1018.1
20260507080913 26 0.0 0.0 0.00 0.00 0.00 51 1018.1
20260507075911 26 0.0 0.0 0.00 0.00 0.00 48 1018.0
20260507073912 25 0.0 0.0 0.00 0.00 0.00 51 1017.7
20260507071912 25 0.0 0.0 0.00 0.00 0.00 54 1017.9
20260507070912 25 0.0 0.0 0.00 0.00 0.00 51 1018.0
20260507064913 25 0.0 0.0 0.00 0.00 0.00 59 1018.1
20260507063912 23 0.0 0.0 0.00 0.00 0.00 63 1018.2
20260507062914 23 0.0 0.0 0.00 0.00 0.00 65 1018.2
20260507061913 23 0.0 0.0 0.00 0.00 0.00 66 1018.1
20260507060912 23 0.0 0.0 0.00 0.00 0.00 67 1017.8
20260507054913 23 0.0 0.0 0.00 0.00 0.00 67 1017.7
20260507053913 22 0.0 0.0 0.00 0.00 0.00 62 1017.5
20260507052914 20 0.0 0.0 0.00 0.00 0.00 78 1017.5
20260507051914 18 0.0 0.0 0.00 0.00 0.00 86 1017.4
20260507050914 16 0.0 0.0 0.00 0.00 0.00 10 1017.4
20260507045913 15 0.0 0.0 0.00 0.00 0.00 10 1017.1
20260507044912 15 0.0 0.0 0.00 0.00 0.00 10 1017.0
20260507043911 15 0.0 0.0 0.00 0.00 0.00 10 1017.1
20260507041912 16 0.0 0.0 0.00 0.00 0.00 98 1017.2
20260507040913 15 0.0 0.0 0.00 0.00 0.00 10 1017.1
20260507035912 14 0.0 0.0 0.00 0.00 0.00 10 1017.2
20260507034913 13 0.0 0.0 0.00 0.00 0.00 10 1017.1